Islip, NY

1:31 PM EDT on June 23, 2017 (GMT -0400)
Long Island Mac Arthur

Weather History for KISP - February, 2014

Change the Weather History Date:

Tuesday, February 4, 2014

  Actual Average Record
Temperature  
Mean Temperature 29 °F 31 °F  
Max Temperature 38 °F 39 °F 66 °F (1991)
Min Temperature 20 °F 24 °F 10 °F (1996)
Degree Days  
Heating Degree Days 36 34  
Month to date heating degree days 116 136  
Since 1 July heating degree days 3088 3128  
Cooling Degree Days 0 0  
Month to date cooling degree days 0 0  
Year to date cooling degree days 0 0  
Moisture  
Dew Point 22 °F    
Average Humidity 72    
Maximum Humidity 88    
Minimum Humidity 56    
Precipitation  
Precipitation 0.00 in 0.11 in 0.81 in (1984)
Month to date precipitation 0.95 0.44  
Year to date precipitation 4.93 4.08  
Snow  
Snow 0.00 in 0.30 in 5.00 in (1995)
Month to date snowfall 7.0 1.0  
Since 1 July snowfall 40.6 13.6  
Snow Depth 6.00 in    
Sea Level Pressure  
Sea Level Pressure 30.37 in    
Wind  
Wind Speed 5 mph (North)    
Max Wind Speed 9 mph    
Max Gust Speed 12 mph    
Visibility 10 miles    
Events      
T = Trace of Precipitation, MM = Missing Value Source: NWS Daily Summary

Daily Weather History Graph

Daily Weather History Graph

Search for Another Location

Airport or City:

Trip Planner

Search our weather history database for the weather conditions in past years. The results will help you decide how hot, cold, wet, or windy it might be!

Date:

Astronomy

Feb. 04, 2014 Rise Set
Actual Time 6:59 AM EST 5:13 PM EST
Civil Twilight 6:30 AM EST 5:42 PM EST
Nautical Twilight 5:58 AM EST 6:15 PM EST
Astronomical Twilight 5:26 AM EST 6:47 PM EST
Moon 9:33 AM EST (2/4) 11:07 PM EST (2/4)
Length of Visible Light 11h 11m
Length of Day
10h 14m
Waxing Crescent, 29% of the Moon is Illuminated
Feb 4
Waxing Crescent
Feb 6
First Quarter
Feb 14
Full
Feb 22
Last Quarter
Mar 1
New

Hourly Weather History & Observations

Time (EST) Temp. Windchill Dew Point Humidity Pressure Visibility Wind Dir Wind Speed Gust Speed Precip Events Conditions
12:56 AM 26.1 °F 19.4 °F 21.9 °F 84% 30.29 in 10.0 mi NNW 5.8 mph - N/A   Clear
1:56 AM 26.1 °F 17.6 °F 21.0 °F 81% 30.31 in 10.0 mi NNW 8.1 mph - N/A   Clear
2:56 AM 25.0 °F 16.3 °F 21.0 °F 85% 30.34 in 10.0 mi NNW 8.1 mph - N/A   Clear
3:56 AM 24.1 °F 16.0 °F 19.0 °F 81% 30.34 in 10.0 mi NNW 6.9 mph - N/A   Clear
4:56 AM 24.1 °F 14.4 °F 19.0 °F 81% 30.35 in 10.0 mi North 9.2 mph - N/A   Clear
5:56 AM 23.0 °F 14.7 °F 18.0 °F 81% 30.38 in 10.0 mi NNW 6.9 mph - N/A   Partly Cloudy
6:56 AM 21.0 °F 14.6 °F 17.1 °F 85% 30.40 in 10.0 mi North 4.6 mph - N/A   Scattered Clouds
7:56 AM 23.0 °F 15.8 °F 19.9 °F 88% 30.40 in 10.0 mi North 5.8 mph - N/A   Mostly Cloudy
8:56 AM 26.1 °F 19.4 °F 21.0 °F 81% 30.45 in 10.0 mi NNW 5.8 mph - N/A   Mostly Cloudy
9:56 AM 30.0 °F 23.2 °F 23.0 °F 75% 30.45 in 10.0 mi North 6.9 mph - N/A   Mostly Cloudy
10:56 AM 32.0 °F 25.6 °F 24.1 °F 73% 30.45 in 10.0 mi NNE 6.9 mph - N/A   Mostly Cloudy
11:56 AM 33.1 °F 27.7 °F 24.1 °F 70% 30.42 in 10.0 mi North 5.8 mph - N/A   Mostly Cloudy
12:56 PM 34.0 °F 28.8 °F 23.0 °F 64% 30.39 in 10.0 mi NE 5.8 mph - N/A   Mostly Cloudy
1:56 PM 37.9 °F - 24.1 °F 57% 30.40 in 10.0 mi Calm Calm - N/A   Mostly Cloudy
2:56 PM 35.1 °F - 21.9 °F 59% 30.40 in 10.0 mi Calm Calm - N/A   Mostly Cloudy
3:56 PM 35.1 °F - 21.9 °F 59% 30.36 in 10.0 mi Calm Calm - N/A   Mostly Cloudy
4:56 PM 32.0 °F 26.4 °F 21.9 °F 66% 30.37 in 10.0 mi South 5.8 mph - N/A   Mostly Cloudy
5:56 PM 32.0 °F - 23.0 °F 69% 30.40 in 10.0 mi Calm Calm - N/A   Mostly Cloudy
6:56 PM 27.0 °F 23.0 °F 21.0 °F 78% 30.39 in 10.0 mi NNE 3.5 mph - N/A   Scattered Clouds
7:56 PM 27.0 °F 20.5 °F 21.9 °F 81% 30.35 in 10.0 mi ENE 5.8 mph - N/A   Mostly Cloudy
8:56 PM 28.9 °F - 25.0 °F 85% 30.38 in 10.0 mi Calm Calm - N/A   Overcast
9:56 PM 30.0 °F 26.5 °F 25.0 °F 82% 30.34 in 10.0 mi NE 3.5 mph - N/A   Overcast
10:56 PM 30.9 °F 26.2 °F 25.0 °F 79% 30.33 in 10.0 mi North 4.6 mph - N/A   Overcast
11:56 PM 30.9 °F 23.5 °F 25.0 °F 79% 30.26 in 10.0 mi ENE 8.1 mph - N/A   Overcast